Total_Precipitation_Accumulation
0.73 0.75 0.69 0.73 0.69 0.68 0.70 0.71 0.58 0.55 0.53 0.43 0.39 0.41 0.43 0.38 0.45 0.47 0.52 0.64 0.90 1.13 1.07 0.92 0.81 0.66 0.59 0.57 0.53 0.53 0.56 0.55 0.55 0.57 0.54 0.48 0.50 0.51 0.43 0.46 0.53 0.49 0.45
0.62 0.74 0.72 0.77 0.69 0.71 0.78 0.71 0.64 0.64 0.61 0.52 0.41 0.43 0.44 0.40 0.44 0.50 0.55 0.66 0.79 1.12 1.36 1.25 1.13 0.96 0.75 0.62 0.56 0.58 0.54 0.48 0.49 0.53 0.48 0.41 0.42 0.39 0.33 0.37 0.47 0.50 0.47
0.62 0.74 0.78 0.77 0.74 0.77 0.80 0.83 0.82 0.77 0.67 0.57 0.49 0.46 0.44 0.44 0.47 0.49 0.50 0.64 0.64 0.70 1.04 1.32 1.38 1.29 1.03 0.78 0.63 0.56 0.53 0.48 0.45 0.48 0.46 0.36 0.34 0.31 0.29 0.31 0.40 0.40 0.41
0.67 0.87 0.92 0.80 0.85 0.94 0.98 0.99 0.95 0.87 0.76 0.70 0.69 0.59 0.49 0.46 0.49 0.52 0.52 0.54 0.52 0.45 0.53 0.68 0.81 0.99 1.15 1.08 0.86 0.66 0.59 0.47 0.39 0.42 0.40 0.31 0.27 0.25 0.27 0.31 0.32 0.35 0.39
0.89 1.06 1.13 1.04 1.01 1.15 1.11 1.01 1.01 1.00 0.90 0.87 0.84 0.80 0.63 0.53 0.53 0.52 0.58 0.65 0.61 0.53 0.51 0.44 0.48 0.58 0.81 1.00 0.98 0.85 0.69 0.53 0.41 0.39 0.35 0.26 0.21 0.22 0.24 0.25 0.27 0.32 0.35
1.13 1.28 1.37 1.33 1.29 1.39 1.37 1.24 1.31 1.29 1.18 1.20 1.10 0.95 0.82 0.72 0.67 0.65 0.63 0.68 0.72 0.61 0.58 0.48 0.44 0.39 0.49 0.65 0.80 0.83 0.73 0.62 0.50 0.41 0.35 0.27 0.20 0.18 0.20 0.24 0.25 0.28 0.30
1.52 1.63 1.59 1.80 1.87 1.84 1.83 1.76 1.86 1.86 1.59 1.42 1.64 1.58 1.16 0.87 0.76 0.77 0.76 0.73 0.73 0.71 0.68 0.64 0.54 0.44 0.37 0.39 0.46 0.63 0.68 0.65 0.58 0.48 0.39 0.31 0.24 0.20 0.19 0.22 0.26 0.30 0.32
1.86 1.79 1.86 2.06 2.11 2.20 2.28 2.12 2.21 2.26 1.94 1.65 1.97 2.33 1.83 1.41 0.87 0.68 0.74 0.79 0.82 0.80 0.76 0.69 0.64 0.56 0.45 0.43 0.32 0.39 0.54 0.64 0.64 0.59 0.52 0.42 0.32 0.25 0.19 0.19 0.25 0.32 0.32
2.25 2.14 2.09 2.22 2.23 2.29 2.45 2.48 2.42 2.46 2.34 2.04 2.01 2.39 2.20 1.87 1.45 0.89 0.76 0.81 0.90 0.91 0.91 0.90 0.81 0.72 0.59 0.57 0.54 0.41 0.38 0.45 0.59 0.63 0.62 0.54 0.44 0.36 0.27 0.24 0.26 0.30 0.28
2.41 2.37 2.31 2.38 2.37 2.32 2.40 2.48 2.46 2.64 2.77 2.48 2.24 2.01 1.88 1.87 1.84 1.39 0.96 0.86 0.97 1.01 1.01 0.92 0.90 0.89 0.83 0.71 0.69 0.53 0.42 0.38 0.50 0.62 0.68 0.69 0.60 0.47 0.39 0.33 0.33 0.32 0.30
2.13 2.11 2.22 2.37 2.37 2.34 2.34 2.50 2.62 2.78 2.74 2.64 2.47 2.34 2.15 1.94 1.59 1.61 1.48 1.20 1.11 1.00 1.05 1.09 1.05 1.05 1.02 1.00 1.02 0.72 0.53 0.40 0.41 0.56 0.65 0.72 0.73 0.63 0.54 0.44 0.37 0.35 0.38
1.94 1.86 1.95 2.05 2.13 2.18 2.17 2.20 2.35 2.49 2.64 2.76 2.67 2.48 2.35 2.19 1.99 1.85 1.56 1.40 1.40 1.21 1.10 1.06 1.10 1.12 1.18 1.17 1.09 1.02 0.72 0.52 0.40 0.42 0.52 0.61 0.70 0.76 0.72 0.65 0.55 0.47 0.46
1.85 1.80 1.76 1.83 1.91 1.95 2.06 2.21 2.18 2.20 2.36 2.53 2.53 2.46 2.42 2.20 2.07 2.10 1.92 1.59 1.47 1.30 1.21 1.12 1.05 1.07 1.08 1.12 1.19 1.15 0.83 0.68 0.50 0.40 0.40 0.41 0.48 0.58 0.68 0.80 0.87 0.84 0.81
1.46 1.45 1.49 1.59 1.75 1.85 1.95 2.06 2.08 2.05 2.10 2.17 2.21 2.29 2.33 2.22 2.00 1.93 1.96 2.03 1.76 1.47 1.29 1.15 1.06 1.02 1.01 1.02 1.14 1.21 0.84 0.70 0.57 0.48 0.43 0.38 0.38 0.42 0.51 0.62 0.80 0.96 1.14
1.08 1.13 1.18 1.31 1.52 1.65 1.71 1.81 1.91 1.93 1.97 1.96 2.02 2.07 2.04 2.07 1.95 1.80 1.76 1.83 1.91 1.70 1.54 1.35 1.14 0.96 1.01 0.98 1.02 0.86 0.77 0.77 0.64 0.52 0.47 0.41 0.36 0.36 0.37 0.44 0.51 0.56 0.63
0.97 1.06 1.08 1.14 1.25 1.35 1.46 1.64 1.76 1.83 1.84 1.79 1.77 1.82 1.85 1.91 1.94 1.92 1.87 1.83 1.78 1.72 1.63 1.44 1.16 0.91 0.97 1.02 1.10 0.92 0.88 0.97 0.79 0.61 0.50 0.44 0.40 0.35 0.32 0.32 0.32 0.31 0.32
0.95 1.00 1.05 1.10 1.12 1.21 1.27 1.38 1.52 1.63 1.63 1.61 1.53 1.56 1.66 1.72 1.89 1.94 1.91 1.84 1.83 1.74 1.58 1.49 1.24 1.02 1.00 1.04 1.08 1.00 0.99 0.96 0.82 0.72 0.60 0.53 0.46 0.43 0.40 0.36 0.34 0.30 0.26
0.79 0.90 1.04 1.03 1.04 1.08 1.16 1.26 1.35 1.39 1.45 1.39 1.30 1.30 1.40 1.49 1.62 1.77 1.88 1.79 1.79 1.74 1.70 1.64 1.41 1.19 1.10 1.07 1.07 1.03 0.94 0.93 0.92 0.85 0.70 0.61 0.56 0.52 0.48 0.43 0.40 0.37 0.35
0.74 0.88 1.02 1.14 1.06 0.97 1.05 1.14 1.19 1.21 1.20 1.14 1.10 1.10 1.15 1.22 1.33 1.47 1.61 1.71 1.70 1.66 1.75 1.72 1.50 1.26 1.14 1.08 1.08 1.05 0.98 1.00 0.94 0.90 0.81 0.70 0.64 0.58 0.53 0.51 0.49 0.45 0.40
0.61 0.68 0.82 0.94 0.99 0.95 0.90 0.91 0.96 1.11 1.09 0.99 0.90 0.88 0.91 0.94 1.01 1.16 1.29 1.45 1.60 1.71 1.80 1.80 1.62 1.34 1.16 1.11 1.11 1.16 1.16 1.05 1.04 0.95 0.92 0.85 0.83 0.78 0.68 0.61 0.55 0.50 0.46
0.47 0.54 0.70 0.88 0.94 0.94 0.97 0.97 0.89 0.93 0.98 0.98 0.90 0.81 0.74 0.74 0.82 0.91 1.01 1.26 1.44 1.59 1.73 1.78 1.68 1.49 1.29 1.21 1.13 1.11 1.19 1.28 1.26 1.12 1.07 0.97 0.89 0.78 0.70 0.63 0.56 0.48 0.42
0.42 0.45 0.53 0.69 0.85 0.84 0.99 1.04 0.98 0.89 0.89 0.88 0.87 0.87 0.86 0.81 0.69 0.64 0.68 0.84 1.07 1.28 1.45 1.55 1.57 1.44 1.29 1.23 1.27 1.24 1.19 1.22 1.30 1.18 1.16 1.23 1.12 0.96 0.84 0.72 0.66 0.59 0.50
0.38 0.41 0.47 0.59 0.74 0.89 0.91 0.82 0.91 0.91 0.88 0.88 0.84 0.84 0.88 0.86 0.88 0.77 0.70 0.68 0.73 0.90 1.12 1.30 1.33 1.29 1.35 1.29 1.23 1.17 1.10 1.07 1.08 1.11 1.12 1.19 1.16 1.05 0.91 0.86 0.87 0.76 0.69
0.37 0.39 0.43 0.49 0.57 0.76 0.81 0.72 0.89 0.92 0.93 0.92 0.90 0.91 0.93 0.97 0.94 1.02 0.99 0.90 0.85 0.85 0.95 0.87 0.97 1.22 1.30 1.29 1.28 1.30 1.28 1.16 1.07 1.04 1.00 1.04 1.03 0.97 0.86 0.81 0.85 0.77 0.69
0.39 0.38 0.38 0.41 0.44 0.53 0.62 0.59 0.73 0.87 0.97 0.96 0.86 0.86 0.90 0.93 1.12 1.15 1.06 1.04 0.98 0.94 1.08 1.08 1.08 1.12 1.15 1.14 1.15 1.23 1.27 1.20 1.15 1.05 0.94 0.85 0.85 0.91 0.92 0.84 0.82 0.84 0.76
0.46 0.41 0.39 0.37 0.40 0.42 0.55 0.45 0.56 0.73 0.89 0.98 0.92 0.88 1.03 0.99 1.00 0.94 0.90 1.09 1.07 0.97 0.88 0.85 0.87 0.91 0.92 0.96 1.00 1.03 1.14 1.13 1.05 1.04 0.91 0.82 0.80 0.86 0.89 0.82 0.74 0.72 0.73